TimeEDT,TemperatureF,Dew PointF,Humidity,Sea Level PressureIn,VisibilityMPH,Wind Direction,Wind SpeedMPH,Gust SpeedMPH,PrecipitationIn,Events,Conditions,WindDirDegrees,DateUTC
12:52 AM,52.0,50.0,93,30.05,10.0,Calm,Calm,-,N/A,,Clear,0,2012-03-23 04:52:00
1:52 AM,51.1,50.0,96,30.06,10.0,Calm,Calm,-,N/A,,Clear,0,2012-03-23 05:52:00
2:52 AM,53.1,51.1,93,30.05,10.0,Calm,Calm,-,N/A,,Overcast,0,2012-03-23 06:52:00
3:52 AM,51.1,50.0,96,30.06,10.0,Calm,Calm,-,N/A,,Clear,0,2012-03-23 07:52:00
4:52 AM,51.1,50.0,96,30.07,10.0,Calm,Calm,-,N/A,,Clear,0,2012-03-23 08:52:00
5:52 AM,52.0,50.0,93,30.09,10.0,NNW,4.6,-,N/A,,Clear,340,2012-03-23 09:52:00
6:52 AM,52.0,50.0,93,30.11,10.0,Calm,Calm,-,N/A,,Clear,0,2012-03-23 10:52:00
7:52 AM,54.0,51.1,90,30.13,10.0,North,3.5,-,N/A,,Overcast,360,2012-03-23 11:52:00
8:52 AM,59.0,48.0,67,30.14,10.0,North,6.9,-,N/A,,Overcast,350,2012-03-23 12:52:00
10:52 AM,66.0,36.0,33,30.14,10.0,North,12.7,19.6,N/A,,Clear,360,2012-03-23 14:52:00
11:52 AM,68.0,33.1,27,30.13,10.0,Variable,4.6,-,N/A,,Clear,0,2012-03-23 15:52:00
12:52 PM,70.0,30.9,24,30.11,10.0,North,5.8,19.6,N/A,,Clear,350,2012-03-23 16:52:00
1:52 PM,72.0,30.9,22,30.08,10.0,NW,8.1,-,N/A,,Clear,320,2012-03-23 17:52:00
2:52 PM,75.0,30.9,20,30.03,10.0,Variable,4.6,16.1,N/A,,Clear,0,2012-03-23 18:52:00
4:52 PM,73.0,27.0,18,30.02,10.0,NW,16.1,23.0,N/A,,Clear,320,2012-03-23 20:52:00
5:52 PM,69.1,28.0,22,30.04,10.0,NNW,18.4,24.2,N/A,,Clear,330,2012-03-23 21:52:00
6:52 PM,64.0,24.1,22,30.04,10.0,NW,8.1,-,N/A,,Clear,320,2012-03-23 22:52:00
7:52 PM,57.0,30.0,36,30.04,10.0,Calm,Calm,-,N/A,,Clear,0,2012-03-23 23:52:00
8:52 PM,52.0,33.1,49,30.05,10.0,Calm,Calm,-,N/A,,Clear,0,2012-03-24 00:52:00
9:52 PM,51.1,36.0,56,30.06,10.0,Calm,Calm,-,N/A,,Clear,0,2012-03-24 01:52:00
10:52 PM,57.9,27.0,31,30.07,10.0,North,9.2,-,N/A,,Clear,10,2012-03-24 02:52:00
11:52 PM,57.0,26.1,30,30.08,10.0,NNE,6.9,-,N/A,,Clear,20,2012-03-24 03:52:00